Flag for United Kingdom Weather past 2 weeks in Belfast, Northern Ireland, United Kingdom

48 °F

Passing clouds.

Feels Like: 45 °F
Forecast: 47 / 55 °F
Wind: 8 mph from West

Location: Belfast / Harbour

Current Time: Nov 26, 2015 at 12:21:16 AM

Latest Report: Nov 25, 2015 at 9:50 PM

Visibility: N/A

Pressure: 30.07 "Hg

Humidity: 71%

Dew point: 39 °F

Location of BelfastLocation

Historic Weather in Belfast — Graph


Belfast temperature yesterday

Maximum temperature yesterday: 50 °F (at 7:20 AM)
Minimum temperature yesterday: 48 °F (at 6:20 AM)
Average temperature yesterday: 49 °F

Past Weeks' High & Low Weather Summary

High59 °F (Nov 15, 10:50 AM)88% (Nov 17, 3:50 PM)30.24 "Hg (Nov 17, 3:50 PM)
Low32 °F (Nov 22, 9:20 PM)49% (Nov 22, 2:50 PM)29.06 "Hg (Nov 17, 2:50 PM)
Average46 °F70%29.75 "Hg
* Reported Nov 11 6:20 AM — Nov 25 9:50 PM, Belfast, Weather by CustomWeather, © 2015

Note: Actual official high and low records may vary slightly from our data, if they occured in-between our weather recording intervals... More about our weather records


Belfast weather history for previous 24 hours

Time TempWeatherWind HumidityBarometerVisibility
9:50 PM
Wed, Nov 25
48 °FPassing clouds.8 mph71%30.07 "HgN/A
9:20 PM48 °FPartly cloudy.8 mph66%30.07 "HgN/A
8:50 PM48 °FPassing clouds.6 mph66%30.07 "HgN/A
8:20 PM48 °FPassing clouds.3 mph66%30.04 "HgN/A
7:50 PM48 °FPartly cloudy.7 mph66%30.07 "HgN/A
7:20 PM48 °FPartly cloudy.7 mph66%30.04 "HgN/A
6:50 PM48 °FPassing clouds.10 mph66%30.07 "HgN/A
6:20 PM48 °FPartly cloudy.9 mph66%30.04 "HgN/A
5:50 PM48 °FPartly cloudy.10 mph66%30.04 "HgN/A
5:20 PM48 °FScattered showers. Passing clouds.12 mph71%30.04 "Hg5 mi
4:50 PM48 °FScattered showers. Passing clouds.13 mph71%30.04 "Hg5 mi
4:20 PM50 °FScattered showers. Partly cloudy.13 mph71%30.01 "Hg4 mi
3:50 PM48 °FDrizzle. Broken clouds.14 mph76%30.01 "Hg4 mi
3:20 PM50 °FDrizzle. Broken clouds.10 mph71%30.01 "Hg4 mi
2:50 PM50 °FScattered showers. Partly sunny.12 mph71%30.01 "HgN/A
2:20 PM50 °FScattered showers. Partly sunny.13 mph71%29.98 "Hg6 mi
1:50 PM50 °FSprinkles. Broken clouds.12 mph71%29.98 "Hg3 mi
1:20 PM50 °FSprinkles. Scattered clouds.15 mph71%29.98 "HgN/A
12:50 PM50 °FScattered clouds.15 mph67%29.95 "HgN/A
12:20 PM50 °FScattered clouds.13 mph71%29.98 "HgN/A
11:50 AM50 °FScattered clouds.13 mph71%29.95 "HgN/A
11:20 AM50 °FScattered showers. Scattered clouds.16 mph71%29.95 "HgN/A
10:50 AM48 °FDrizzle. Partly sunny.12 mph76%29.95 "HgN/A
10:20 AM50 °FDrizzle. Broken clouds.12 mph71%29.95 "HgN/A
9:50 AM50 °FDrizzle. Broken clouds.16 mph67%29.92 "HgN/A
9:20 AM50 °FSprinkles. Broken clouds.15 mph67%29.92 "HgN/A
8:50 AM50 °FDrizzle. Broken clouds.17 mph67%29.92 "HgN/A
8:20 AM50 °FScattered showers. Broken clouds.22 mph67%29.92 "HgN/A
7:50 AM50 °FScattered showers. Partly cloudy.20 mph67%29.89 "HgN/A
7:20 AM50 °FPassing clouds.16 mph67%29.89 "HgN/A
6:50 AM48 °FSprinkles. Partly cloudy.17 mph76%29.89 "HgN/A
6:20 AM48 °FPartly cloudy.16 mph71%29.86 "HgN/A
Weather by CustomWeather, © 2015

See weather overviewHow to use our weather pages